[{"OBJECT_NAME":"GAOFEN-1 04","OBJECT_ID":"2018-031D","EPOCH":"2026-09-12T04:51:03.217248","MEAN_MOTION":14.76474053,"ECCENTRICITY":0.0002143,"INCLINATION":98.0455,"RA_OF_ASC_NODE":317.4974,"ARG_OF_PERICENTER":106.9086,"MEAN_ANOMALY":253.2358,"EPHEMERIS_TYPE":0,"CLASSIFICATION_TYPE":"U","NORAD_CAT_ID":43262,"ELEMENT_SET_NO":999,"REV_AT_EPOCH":45552,"BSTAR":0.000067649,"MEAN_MOTION_DOT":0.00000419,"MEAN_MOTION_DDOT":0},{"OBJECT_NAME":"SENTINEL-3B","OBJECT_ID":"2018-039A","EPOCH":"2026-09-12T03:37:02.135424","MEAN_MOTION":14.2673673,"ECCENTRICITY":0.0001429,"INCLINATION":98.6285,"RA_OF_ASC_NODE":321.4222,"ARG_OF_PERICENTER":79.1773,"MEAN_ANOMALY":280.9568,"EPHEMERIS_TYPE":0,"CLASSIFICATION_TYPE":"U","NORAD_CAT_ID":43437,"ELEMENT_SET_NO":999,"REV_AT_EPOCH":43652,"BSTAR":0.000042431,"MEAN_MOTION_DOT":5.9e-7,"MEAN_MOTION_DDOT":0},{"OBJECT_NAME":"GAOFEN-5 01","OBJECT_ID":"2018-043A","EPOCH":"2026-09-11T22:11:31.247808","MEAN_MOTION":14.60655422,"ECCENTRICITY":0.0002273,"INCLINATION":98.4681,"RA_OF_ASC_NODE":228.3803,"ARG_OF_PERICENTER":137.2207,"MEAN_ANOMALY":222.917,"EPHEMERIS_TYPE":0,"CLASSIFICATION_TYPE":"U","NORAD_CAT_ID":43461,"ELEMENT_SET_NO":999,"REV_AT_EPOCH":44435,"BSTAR":0.000053778,"MEAN_MOTION_DOT":0.00000213,"MEAN_MOTION_DDOT":0},{"OBJECT_NAME":"GAOFEN-6","OBJECT_ID":"2018-048A","EPOCH":"2026-09-12T05:26:04.534368","MEAN_MOTION":14.7643911,"ECCENTRICITY":0.0009314,"INCLINATION":98.0896,"RA_OF_ASC_NODE":318.0443,"ARG_OF_PERICENTER":249.0526,"MEAN_ANOMALY":110.9687,"EPHEMERIS_TYPE":0,"CLASSIFICATION_TYPE":"U","NORAD_CAT_ID":43484,"ELEMENT_SET_NO":999,"REV_AT_EPOCH":44623,"BSTAR":0.00010645,"MEAN_MOTION_DOT":0.00000688,"MEAN_MOTION_DDOT":0},{"OBJECT_NAME":"GAOFEN-11 01","OBJECT_ID":"2018-063A","EPOCH":"2026-09-12T05:20:09.406176","MEAN_MOTION":15.57642284,"ECCENTRICITY":0.0004076,"INCLINATION":97.1207,"RA_OF_ASC_NODE":321.9565,"ARG_OF_PERICENTER":33.1322,"MEAN_ANOMALY":327.0189,"EPHEMERIS_TYPE":0,"CLASSIFICATION_TYPE":"U","NORAD_CAT_ID":43585,"ELEMENT_SET_NO":999,"REV_AT_EPOCH":45388,"BSTAR":0.00011742,"MEAN_MOTION_DOT":0.00008579,"MEAN_MOTION_DDOT":0},{"OBJECT_NAME":"ICESAT-2","OBJECT_ID":"2018-070A","EPOCH":"2026-09-12T02:40:08.899104","MEAN_MOTION":15.28228512,"ECCENTRICITY":0.0005536,"INCLINATION":92.0035,"RA_OF_ASC_NODE":314.4592,"ARG_OF_PERICENTER":114.5516,"MEAN_ANOMALY":245.6311,"EPHEMERIS_TYPE":0,"CLASSIFICATION_TYPE":"U","NORAD_CAT_ID":43613,"ELEMENT_SET_NO":999,"REV_AT_EPOCH":44573,"BSTAR":0.00025226,"MEAN_MOTION_DOT":0.00006939,"MEAN_MOTION_DDOT":0},{"OBJECT_NAME":"HYSIS","OBJECT_ID":"2018-096A","EPOCH":"2026-09-12T04:01:52.441248","MEAN_MOTION":14.78649791,"ECCENTRICITY":0.000112,"INCLINATION":97.9771,"RA_OF_ASC_NODE":321.1967,"ARG_OF_PERICENTER":107.6639,"MEAN_ANOMALY":252.4695,"EPHEMERIS_TYPE":0,"CLASSIFICATION_TYPE":"U","NORAD_CAT_ID":43719,"ELEMENT_SET_NO":999,"REV_AT_EPOCH":42027,"BSTAR":0.00013959,"MEAN_MOTION_DOT":0.00000971,"MEAN_MOTION_DDOT":0},{"OBJECT_NAME":"KAZSTSAT","OBJECT_ID":"2018-099AB","EPOCH":"2026-09-12T00:30:23.152320","MEAN_MOTION":15.00018749,"ECCENTRICITY":0.0013131,"INCLINATION":97.4213,"RA_OF_ASC_NODE":283.0035,"ARG_OF_PERICENTER":115.7659,"MEAN_ANOMALY":244.4922,"EPHEMERIS_TYPE":0,"CLASSIFICATION_TYPE":"U","NORAD_CAT_ID":43783,"ELEMENT_SET_NO":999,"REV_AT_EPOCH":42432,"BSTAR":0.000088028,"MEAN_MOTION_DOT":0.00001041,"MEAN_MOTION_DDOT":0},{"OBJECT_NAME":"SAUDISAT 5A","OBJECT_ID":"2018-102A","EPOCH":"2026-09-12T04:07:46.758144","MEAN_MOTION":15.28804507,"ECCENTRICITY":0.0009515,"INCLINATION":97.298,"RA_OF_ASC_NODE":315.0801,"ARG_OF_PERICENTER":175.1077,"MEAN_ANOMALY":185.0258,"EPHEMERIS_TYPE":0,"CLASSIFICATION_TYPE":"U","NORAD_CAT_ID":43831,"ELEMENT_SET_NO":999,"REV_AT_EPOCH":42896,"BSTAR":0.00014351,"MEAN_MOTION_DOT":0.00003948,"MEAN_MOTION_DDOT":0},{"OBJECT_NAME":"SAUDISAT 5B","OBJECT_ID":"2018-102C","EPOCH":"2026-09-12T04:15:32.137920","MEAN_MOTION":15.29022365,"ECCENTRICITY":0.0010152,"INCLINATION":97.3093,"RA_OF_ASC_NODE":318.3126,"ARG_OF_PERICENTER":178.0661,"MEAN_ANOMALY":182.0621,"EPHEMERIS_TYPE":0,"CLASSIFICATION_TYPE":"U","NORAD_CAT_ID":43833,"ELEMENT_SET_NO":999,"REV_AT_EPOCH":42908,"BSTAR":0.00013785,"MEAN_MOTION_DOT":0.00003815,"MEAN_MOTION_DDOT":0},{"OBJECT_NAME":"GAOFEN-10R","OBJECT_ID":"2019-066A","EPOCH":"2026-09-12T04:29:48.729984","MEAN_MOTION":14.83160716,"ECCENTRICITY":0.000487,"INCLINATION":98.0587,"RA_OF_ASC_NODE":209.4394,"ARG_OF_PERICENTER":199.0207,"MEAN_ANOMALY":161.0825,"EPHEMERIS_TYPE":0,"CLASSIFICATION_TYPE":"U","NORAD_CAT_ID":44622,"ELEMENT_SET_NO":999,"REV_AT_EPOCH":37527,"BSTAR":0.000097572,"MEAN_MOTION_DOT":0.00000741,"MEAN_MOTION_DDOT":0},{"OBJECT_NAME":"CARTOSAT-3","OBJECT_ID":"2019-081A","EPOCH":"2026-09-12T03:54:40.889664","MEAN_MOTION":15.19200538,"ECCENTRICITY":0.0010711,"INCLINATION":97.4225,"RA_OF_ASC_NODE":315.5876,"ARG_OF_PERICENTER":204.7619,"MEAN_ANOMALY":155.3103,"EPHEMERIS_TYPE":0,"CLASSIFICATION_TYPE":"U","NORAD_CAT_ID":44804,"ELEMENT_SET_NO":999,"REV_AT_EPOCH":37667,"BSTAR":0.00011873,"MEAN_MOTION_DOT":0.00002434,"MEAN_MOTION_DDOT":0},{"OBJECT_NAME":"GAOFEN-12 01","OBJECT_ID":"2019-082A","EPOCH":"2026-09-12T04:46:10.142400","MEAN_MOTION":14.80516565,"ECCENTRICITY":0.0002434,"INCLINATION":97.8147,"RA_OF_ASC_NODE":259.3017,"ARG_OF_PERICENTER":98.5884,"MEAN_ANOMALY":261.5605,"EPHEMERIS_TYPE":0,"CLASSIFICATION_TYPE":"U","NORAD_CAT_ID":44819,"ELEMENT_SET_NO":999,"REV_AT_EPOCH":36696,"BSTAR":0.000036181,"MEAN_MOTION_DOT":0.00000226,"MEAN_MOTION_DDOT":0},{"OBJECT_NAME":"CSG-1","OBJECT_ID":"2019-092A","EPOCH":"2026-09-12T03:21:34.545024","MEAN_MOTION":14.82155838,"ECCENTRICITY":0.0001421,"INCLINATION":97.8917,"RA_OF_ASC_NODE":77.5047,"ARG_OF_PERICENTER":86.2662,"MEAN_ANOMALY":273.8713,"EPHEMERIS_TYPE":0,"CLASSIFICATION_TYPE":"U","NORAD_CAT_ID":44873,"ELEMENT_SET_NO":999,"REV_AT_EPOCH":36435,"BSTAR":0.000035053,"MEAN_MOTION_DOT":0.00000227,"MEAN_MOTION_DDOT":0},{"OBJECT_NAME":"NEMO-HD","OBJECT_ID":"2020-061F","EPOCH":"2026-09-12T03:42:28.623744","MEAN_MOTION":15.46159826,"ECCENTRICITY":0.0002641,"INCLINATION":97.183,"RA_OF_ASC_NODE":316.2831,"ARG_OF_PERICENTER":90.3792,"MEAN_ANOMALY":269.776,"EPHEMERIS_TYPE":0,"CLASSIFICATION_TYPE":"U","NORAD_CAT_ID":46277,"ELEMENT_SET_NO":999,"REV_AT_EPOCH":33541,"BSTAR":0.00016112,"MEAN_MOTION_DOT":0.00007814,"MEAN_MOTION_DDOT":0},{"OBJECT_NAME":"SENTINEL-6A","OBJECT_ID":"2020-086A","EPOCH":"2026-09-12T03:21:49.042944","MEAN_MOTION":12.80929289,"ECCENTRICITY":0.0007889,"INCLINATION":66.0425,"RA_OF_ASC_NODE":314.4511,"ARG_OF_PERICENTER":268.9647,"MEAN_ANOMALY":91.0464,"EPHEMERIS_TYPE":0,"CLASSIFICATION_TYPE":"U","NORAD_CAT_ID":46984,"ELEMENT_SET_NO":999,"REV_AT_EPOCH":27146,"BSTAR":0.00013751,"MEAN_MOTION_DOT":-2.9e-7,"MEAN_MOTION_DDOT":0},{"OBJECT_NAME":"CAS500-1","OBJECT_ID":"2021-022A","EPOCH":"2026-09-12T03:34:36.724224","MEAN_MOTION":15.20181248,"ECCENTRICITY":0.0005029,"INCLINATION":97.3768,"RA_OF_ASC_NODE":148.579,"ARG_OF_PERICENTER":4.0819,"MEAN_ANOMALY":356.0457,"EPHEMERIS_TYPE":0,"CLASSIFICATION_TYPE":"U","NORAD_CAT_ID":47932,"ELEMENT_SET_NO":999,"REV_AT_EPOCH":30397,"BSTAR":0.00019752,"MEAN_MOTION_DOT":0.0000421,"MEAN_MOTION_DDOT":0},{"OBJECT_NAME":"GAOFEN-12 02","OBJECT_ID":"2021-026A","EPOCH":"2026-09-12T05:15:33.192288","MEAN_MOTION":14.80352905,"ECCENTRICITY":0.0003921,"INCLINATION":97.9994,"RA_OF_ASC_NODE":253.0743,"ARG_OF_PERICENTER":328.7923,"MEAN_ANOMALY":31.3055,"EPHEMERIS_TYPE":0,"CLASSIFICATION_TYPE":"U","NORAD_CAT_ID":48079,"ELEMENT_SET_NO":999,"REV_AT_EPOCH":29463,"BSTAR":0.000036224,"MEAN_MOTION_DOT":0.00000223,"MEAN_MOTION_DDOT":0},{"OBJECT_NAME":"PLEIADES NEO 3","OBJECT_ID":"2021-034A","EPOCH":"2026-09-12T04:01:06.522240","MEAN_MOTION":14.81672373,"ECCENTRICITY":0.000148,"INCLINATION":97.8958,"RA_OF_ASC_NODE":328.6836,"ARG_OF_PERICENTER":85.7121,"MEAN_ANOMALY":274.4261,"EPHEMERIS_TYPE":0,"CLASSIFICATION_TYPE":"U","NORAD_CAT_ID":48268,"ELEMENT_SET_NO":999,"REV_AT_EPOCH":29053,"BSTAR":0.000035771,"MEAN_MOTION_DOT":0.00000229,"MEAN_MOTION_DDOT":0},{"OBJECT_NAME":"PLEIADES NEO 4","OBJECT_ID":"2021-073E","EPOCH":"2026-09-12T04:49:42.828960","MEAN_MOTION":14.81673342,"ECCENTRICITY":0.0001516,"INCLINATION":97.8957,"RA_OF_ASC_NODE":328.713,"ARG_OF_PERICENTER":86.5038,"MEAN_ANOMALY":273.6349,"EPHEMERIS_TYPE":0,"CLASSIFICATION_TYPE":"U","NORAD_CAT_ID":49070,"ELEMENT_SET_NO":999,"REV_AT_EPOCH":27425,"BSTAR":0.000033605,"MEAN_MOTION_DOT":0.00000212,"MEAN_MOTION_DDOT":0},{"OBJECT_NAME":"LANDSAT 9","OBJECT_ID":"2021-088A","EPOCH":"2026-09-12T04:49:46.684128","MEAN_MOTION":14.57109712,"ECCENTRICITY":0.0001484,"INCLINATION":98.2207,"RA_OF_ASC_NODE":324.2909,"ARG_OF_PERICENTER":100.3913,"MEAN_ANOMALY":259.7453,"EPHEMERIS_TYPE":0,"CLASSIFICATION_TYPE":"U","NORAD_CAT_ID":49260,"ELEMENT_SET_NO":999,"REV_AT_EPOCH":26367,"BSTAR":0.00005639,"MEAN_MOTION_DOT":0.00000209,"MEAN_MOTION_DDOT":0},{"OBJECT_NAME":"CSG-2","OBJECT_ID":"2022-008A","EPOCH":"2026-09-12T04:10:08.489568","MEAN_MOTION":14.8214958,"ECCENTRICITY":0.0001416,"INCLINATION":97.8906,"RA_OF_ASC_NODE":77.5297,"ARG_OF_PERICENTER":80.157,"MEAN_ANOMALY":279.9803,"EPHEMERIS_TYPE":0,"CLASSIFICATION_TYPE":"U","NORAD_CAT_ID":51444,"ELEMENT_SET_NO":999,"REV_AT_EPOCH":24947,"BSTAR":-0.000022977,"MEAN_MOTION_DOT":-0.00000235,"MEAN_MOTION_DDOT":0},{"OBJECT_NAME":"GAOFEN-12 03","OBJECT_ID":"2022-069A","EPOCH":"2026-09-12T03:03:48.897792","MEAN_MOTION":14.80150474,"ECCENTRICITY":0.0000911,"INCLINATION":97.8141,"RA_OF_ASC_NODE":140.7515,"ARG_OF_PERICENTER":109.6343,"MEAN_ANOMALY":250.4968,"EPHEMERIS_TYPE":0,"CLASSIFICATION_TYPE":"U","NORAD_CAT_ID":52912,"ELEMENT_SET_NO":999,"REV_AT_EPOCH":22747,"BSTAR":0.00013709,"MEAN_MOTION_DOT":0.0000099,"MEAN_MOTION_DDOT":0}]